{"data":{"norad_id":65036,"epoch":"2026-05-25T03:37:51.347136Z","epoch_age_seconds":55783,"freshness":"FRESH","line1":"1 65036U 25161X   26145.15128874  .00014696  00000+0  50719-3 0  9999","line2":"2 65036  53.1587 299.2444 0002290  73.3064 286.8188 15.30207759 45932","mean_motion":15.30207759,"eccentricity":0.000229,"inclination_deg":53.1587,"raan_deg":299.2444,"arg_perigee_deg":73.3064,"mean_anomaly_deg":286.8188,"bstar":0.00050719,"rev_number":4593,"period_min":94.104868540273,"perigee_km":473.6224902231,"apogee_km":476.76131486047,"semimajor_km":6853.3289025418,"source":"CELESTRAK","updated_at":"2026-05-25T13:38:20.672717Z"}}